COSMOS 2251 DEB, 35439

Orbit data source: Space-Track

COSMOS 2251 DEB, 35439 is space debris in LEO originally from a launch on Wed, 16 Jun 1993 UTC launched from the Plesetsk Missile And Space Complex (PKMTR). The debris from Iridium 33, an American commercial communications satellite, has been tracked extensively since its accidental collision with the defunct Russian satellite Cosmos 2251 in 2009. This event, occurring at high speed in low Earth orbit (LEO), generated thousands of pieces of space debris, significantly increasing the risk of further collisions. The Iridium 33 debris cloud has impacted space traffic management and orbital debris mitigation strategies, making it a subject of ongoing study in space situational awareness.

Loading next visibility...
Identifier
35439, 1993-036AKH
Orbit
LEO
Country
Flag of CISCIS
Related business
Manufacturer
Unknown
Mission
Spacecraft
Bus & Motor
Unknown
Mass
Unknown
Launch date (UTC)
1993-06-16 (33 years ago)
Launch vehicle
Unknown
Launch site
Plesetsk Missile And Space Complex (PKMTR)
Object type
Payload
Rocket body
Debris
Shape & HBR
Unknown shape, 0.1 m
Radar Cross Section
Medium (>0.1 m² and <1 m²)

Expand to show TLE details & history
Last TLE update: 3 days ago

TLE from 3 days ago
0 COSMOS 2251 DEB
1 35439U 93036AKH 26205.46467295  .00001579  00000-0  96043-3 0  9990
2 35439  74.0176 111.0324 0239604 229.9593 128.0301 13.93779473870773
Epoch: 2026-07-24T11:09Z
TLE epoch observation values (Epoch: 2026-07-24T11:09:07.742Z)
Latitude
-0.00003°
Longitude
1.55921°
Altitude
1,028.195 km
Speed
7.282 km/s
True Right ascension
07h 24m 07s
True Declination
0° 00' 00"
Sunlit
Object was in daylight at epoch
Visualization orbit readout
Latitude
Unknown
Longitude
Unknown
Altitude
Unknown
Speed
Unknown
Apparent Right ascension
Unknown
Apparent Declination
Unknown
Sunlit
N/A
Visualization observer readout
Local Sidereal Time
16:34:28
Azimuth
Unknown
Elevation
Unknown
Doppler factor
Unknown
Orbital elements
Apogee altitude
1,087.787 km
Perigee altitude
738.386 km
Semi-major axis
7,291.223 km
Eccentricity
0.02396
Inclination
74.0176°
RAAN
111.0324°
Arg. of periapsis
229.9593°
True anomaly
130.15313°
Mean anomaly
128.0301°
Eccentric anomaly
129.09555°
Mean motion
3.48612 °/min
Orbital period
103.27 mins
BSTAR
0.00096043

Documentation

Showing up to 5 results
|